Weather History for Aurora, CO

Change the Weather History Date:

Monday, September 12, 2011

  Actual Average Record
Temperature  
Mean Temperature 68 °F -  
Max Temperature 82 °F 76 °F 91 °F (2004)
Min Temperature 55 °F 49 °F 42 °F (1999)
Cooling Degree Days 4    
Growing Degree Days 18 (Base 50)    
Moisture  
Dew Point 40 °F    
Average Humidity 41    
Maximum Humidity 88    
Minimum Humidity 17    
Precipitation  
Precipitation 0.30 in - - ()
Sea Level Pressure  
Sea Level Pressure 30.06 in    
Wind  
Wind Speed 7 mph (WSW)    
Max Wind Speed 13 mph    
Max Gust Speed -    
Visibility 9 miles    
Events Rain , Thunderstorm    
Averages and records for this station are not official NWS values.
T = Trace of Precipitation, MM = Missing Value Source: NWS Daily Summary

Daily Weather History Graph

Daily Weather History Graph

Search for Another Location

Airport:

Trip Planner

Search our weather history database for the weather conditions in past years. The results will help you decide how hot, cold, wet, or windy it might be!

Date:

Astronomy

Sep. 12, 2011 Rise Set
Actual Time 6:37 AM MDT 7:12 PM MDT
Civil Twilight 6:09 AM MDT 7:39 PM MDT
Nautical Twilight 5:37 AM MDT 8:11 PM MDT
Astronomical Twilight 5:04 AM MDT 8:44 PM MDT
Moon 7:02 PM MDT (9/12) 6:56 AM MDT (9/12)
Length of Visible Light 13h 30m
Length of Day
12h 35m
Full, 100% of the Moon is Illuminated
Sep 12
Full
Sep 20
Last Quarter
Sep 27
New
Oct 3
First Quarter
Oct 11
Full

Hourly Weather History & Observations

Time (MDT) Temp. Dew Point Humidity Pressure Visibility Wind Dir Wind Speed Gust Speed Precip Events Conditions
12:55 AM 60.8 °F 35.6 °F 39% 29.98 in 10.0 mi SSW 4.6 mph - N/A   Scattered Clouds
1:55 AM 57.2 °F 37.4 °F 48% 29.98 in 10.0 mi South 6.9 mph - N/A   Scattered Clouds
2:55 AM 57.2 °F 35.6 °F 44% 29.98 in 10.0 mi South 6.9 mph - N/A   Scattered Clouds
3:55 AM 57.2 °F 37.4 °F 48% 29.99 in 10.0 mi South 9.2 mph - N/A   Mostly Cloudy
4:55 AM 57.2 °F 37.4 °F 48% 30.00 in 10.0 mi South 8.1 mph - N/A   Mostly Cloudy
5:55 AM 55.4 °F 37.4 °F 51% 30.01 in 10.0 mi South 6.9 mph - N/A   Mostly Cloudy
6:55 AM 55.4 °F 39.2 °F 54% 30.03 in 70.0 mi South 6.9 mph - N/A   Mostly Cloudy
7:55 AM 62.6 °F 39.2 °F 42% 30.04 in 70.0 mi South 6.9 mph - N/A   Mostly Cloudy
8:55 AM 68.0 °F 39.2 °F 35% 30.04 in 70.0 mi SW 9.2 mph - N/A   Mostly Cloudy
9:55 AM 69.8 °F 39.2 °F 33% 30.06 in 70.0 mi West 5.8 mph - N/A   Mostly Cloudy
10:55 AM 75.2 °F 39.2 °F 27% 30.05 in 70.0 mi WNW 8.1 mph - N/A   Mostly Cloudy
11:55 AM 77.0 °F 37.4 °F 24% 30.05 in 70.0 mi WNW 10.4 mph - N/A   Mostly Cloudy
12:55 PM 78.8 °F 37.4 °F 23% 30.03 in 70.0 mi WNW 4.6 mph - N/A   Scattered Clouds
1:55 PM 80.6 °F 33.8 °F 18% 30.01 in 70.0 mi Calm Calm - N/A   Scattered Clouds
2:55 PM 80.6 °F 32.0 °F 17% 29.99 in 70.0 mi WNW 4.6 mph - N/A   Mostly Cloudy
3:55 PM 80.6 °F 32.0 °F 17% 29.98 in 70.0 mi Calm Calm - N/A   Mostly Cloudy
4:55 PM 82.4 °F 33.8 °F 17% 29.97 in 70.0 mi NNW 6.9 mph - N/A   Mostly Cloudy
5:55 PM 78.8 °F 35.6 °F 21% 29.99 in 25.0 mi North 5.8 mph - N/A   Mostly Cloudy
6:55 PM 75.2 °F 35.6 °F 24% 30.00 in 25.0 mi ENE 4.6 mph - N/A   Mostly Cloudy
7:55 PM 73.4 °F 35.6 °F 25% 30.01 in 25.0 mi North 11.5 mph - N/A   Mostly Cloudy
8:55 PM 71.6 °F 41.0 °F 33% 30.05 in 25.0 mi SW 4.6 mph - N/A   Mostly Cloudy
9:04 PM 69.8 °F 41.0 °F 35% 30.27 in 7.0 mi SW 6.9 mph - N/A Thunderstorm Thunderstorm
9:21 PM 71.6 °F 41.0 °F 33% 30.29 in 7.0 mi WSW 9.2 mph - N/A Rain , Thunderstorm Light Thunderstorms and Rain
9:55 PM 62.6 °F 57.2 °F 82% 30.13 in 7.0 mi NW 12.7 mph - N/A Rain , Thunderstorm Light Thunderstorms and Rain
10:25 PM 60.8 °F 53.6 °F 77% 30.31 in 7.0 mi NE 8.1 mph - N/A Rain Light Rain Showers
10:45 PM 60.8 °F 57.2 °F 88% 30.31 in 7.0 mi ENE 10.4 mph - N/A   Mostly Cloudy
10:55 PM 59.0 °F 53.6 °F 82% 30.11 in 25.0 mi ENE 8.1 mph - N/A   Mostly Cloudy
11:55 PM 60.8 °F 50.0 °F 68% 30.10 in 25.0 mi ENE 8.1 mph - N/A   Mostly Cloudy